Regional Weather Roundup
Issued by NWS Wakefield, VA

Home | Current Version | Previous Version | Graphics & Text | Print | Product List | Glossary On
Versions: 1 2 3 4 5 6 7 8 9 10 11 12 13 14 15 16 17 18 19 20 21 22 23 24 25 26 27 28 29 30 31 32 33 34 35 36 37 38 39 40 41 42 43 44 45 46 47 48 49 50
984
ASUS41 KAKQ 241315
RWRAKQ

REGIONAL WEATHER ROUNDUP
NATIONAL WEATHER SERVICE WAKEFIELD VA
800 AM EST FRI NOV 24 2017

Note: "fair" indicates few or no clouds below 12,000 feet with no
significant weather and/or obstructions to visibility. * = Denotes
station may not report precipitation (e.g., rain,snow,etc.),
thunder or fog.

VAZ042-051-052>054-056-241400-
NORTHERN VIRGINIA

CITY           SKY/WX    TMP DP  RH WIND       PRES   REMARKS
WASH NATIONAL  CLEAR     35  32  88 CALM      30.10R
DULLES         CLOUDY    29  26  89 CALM      30.09R
FORT BELVOIR   CLEAR     27  25  90 CALM      30.09R
QUANTICO       CLEAR     31  29  92 NW5       30.11R
FREDERICKSBRG* CLOUDY    28  28 100 CALM      30.08S
STAFFORD*      CLOUDY    25  25 100 CALM      30.12S
WARRENTON      NOT AVBL
CULPEPER*      CLOUDY    24  22  91 CALM      30.09S
MANASSAS*      CLOUDY    28  25  88 CALM      30.10R
LEESBURG*      CLEAR     28  28 100 CALM      30.10R
WINCHESTER     CLOUDY    27  23  86 SE3       30.06R
FRONT ROYAL*   CLOUDY    27  25  93 MISG      30.06R
LURAY*         CLOUDY    27  27 100 CALM      30.05R
$$

VAZ048-049-060>072-079>083-241400-
CENTRAL AND SOUTH CENTRAL VIRGINIA

CITY           SKY/WX    TMP DP  RH WIND       PRES   REMARKS
RICHMOND       PTCLDY    29  26  89 CALM      30.10S
CHESTERFIELD*  NOT AVBL
PETERSBURG*    CLEAR    N/A N/A N/A CALM      30.10S
HANOVER        CLEAR     27  26  96 CALM      30.10S FOG
TAPPAHANNOCK*    N/A    N/A N/A N/A MISG        N/A
QUINTON*       FAIR      27  27  99 MISG      30.10S
CHARLOTTSVILLE CLOUDY    30  27  88 CALM      30.06S
GORDONSVILLE*  CLOUDY    26  25  96 CALM      30.06S
ORANGE*        CLOUDY    25  23  93 CALM      30.07S
LOUISA*        CLOUDY    26  24  93 CALM      30.11S
BUMPASS*       FAIR      28  27  93 CALM      30.07S
FARMVILLE*     CLOUDY    26  26 100 CALM      30.07S
CREWE*         FAIR      25  25 100 CALM      30.08S
FORT PICKETT*  FAIR      29  29 100 CALM      30.08S
CHASE CITY*    FAIR      30  30 100 CALM      30.07F
CLARKSVILLE*   FAIR      28  28 100 CALM      30.08S
SOUTH HILL*    CLOUDY    25  24  96 CALM      30.14S
LAWRENCEVILLE* FAIR      28  27  94 CALM      30.09R
EMPORIA*       CLOUDY    28  28 100 CALM      30.12S
$$

VAZ088>098-241400-
SOUTHEAST VIRGINIA

CITY           SKY/WX    TMP DP  RH WIND       PRES   REMARKS
NORFOLK        SUNNY     34  33  96 SW5       30.10R
VIRGINIA BEACH MOSUNNY   32  29  88 NW3       30.09R
NORFOLK NAVAL  MOSUNNY   36  33  89 CALM      30.11R
WEST POINT*    MOCLDY    29  28  97 CALM      30.12S VSB 1/2
SALUDA*        FAIR      30  29  94 CALM      30.10R
NEWPORT NEWS   SUNNY     31  29  92 CALM      30.11R
LANGLEY AFB    SUNNY     33  30  90 CALM      30.10R
FORT EUSTIS    SUNNY     32  29  87 CALM      30.08R
WILLIAMSBURG*  SUNNY     30  30 100 CALM      30.11R
HR EXEC AP*    NOT AVBL
FRANKLIN*      SUNNY     28  26  91 CALM      30.11S
US460-WAKEFLD  CLOUDY    30  28  92 CALM      30.11R
$$

VAZ020-022-025-037-045-241400-
WEST CENTRAL AND SOUTHWEST VIRGINIA

CITY           SKY/WX    TMP DP  RH WIND       PRES   REMARKS
STAUNTON*      CLOUDY    23  21  91 CALM      30.06R
WAYNESBORO*    CLOUDY    28  23  82 CALM      30.02R
HOT SPRINGS VA CLOUDY    38  -7  15 CALM      29.99R
LYNCHBURG      CLOUDY    29  26  89 CALM      30.04S
DANVILLE       CLOUDY    24  23  96 CALM      30.07S
SOUTH BOSTON*  FAIR      25  24  96 CALM      30.09S
MARTINSVILLE   CLOUDY    23  21  93 CALM      30.07S
ROANOKE        CLOUDY    30  25  81 CALM      30.07R
BLACKSBURG     CLEAR     28  26  90 CALM      30.06R
DUBLIN*        CLEAR     26  24  90 CALM      30.04R
MARION*        CLEAR     28  24  85 CALM      30.05R
HILLSVILLE*    CLEAR     31  28  87 CALM      30.00R
RICHLANDS*     FAIR      36  24  60 CALM      30.02R
WISE*          CLOUDY    36  27  69 CALM      30.02S
ABINGDON*      CLEAR     32  30  91 CALM      30.03R
$$

MDZ021>025-VAZ099-100-241400-
SOUTHERN MARYLAND AND THE DELMARVA PENINSULA

CITY           SKY/WX    TMP DP  RH WIND       PRES   REMARKS
PATUXENT RIVER CLEAR     32  31  96 SW6       30.09S
BAY BRIDGE APT CLEAR     34  30  86 CALM      30.08S
LEONARDTOWN    CLEAR     30  30 100 CALM      30.10S
DOVER          CLEAR     32  32 100 S3        30.09R
GEORGETOWN     SUNNY     29  26  89 CALM      30.09F
EASTON         CLEAR     30  28  93 CALM      30.12R
CAMBRIDGE      CLEAR     28  27  93 CALM      30.09S
SALISBURY      SUNNY     29  27  92 CALM      30.09S
OCEAN CITY     SUNNY     33  31  92 CALM      30.10S
WALLOPS ISLAND SUNNY     34  32  92 CALM      30.10S
ACCOMACK*      SUNNY     32  31  96 CALM      30.10R
$$

NCZ012>017-030>032-241400-
NORTH CENTRAL AND EASTERN NORTH CAROLINA

CITY           SKY/WX    TMP DP  RH WIND       PRES   REMARKS
ROANOKE RAPIDS FAIR      28  28 100 CALM      30.11R FOG
RALEIGH        PTCLDY    29  28  96 CALM      30.10R
ELIZABETH CITY SUNNY     39  33  79 N10       30.09R
AHOSKIE*       CLOUDY    26  25  96 CALM      30.11R
EDENTON*       SUNNY     32  30  93 CALM      30.10R
CURRITUCK*     SUNNY     35  31  87 CALM      30.10R
KILL DEVIL HLS SUNNY     47  37  70 NE3       30.05S
MANTEO         SUNNY     47  39  74 NE8       30.07S
CAPE HATTERAS  CLOUDY    52  46  80 NE9       30.03S
TARBORO*       NOT AVBL
GOLDSBORO      SUNNY     35  31  85 NW3       30.07R
WASHINGTON     SUNNY     32  30  92 CALM      30.08S
GREENVILLE     SUNNY     28  28 100 N3        30.10S
NEW BERN       SUNNY     37  35  92 N7        30.08R
WILMINGTON     MOSUNNY   41  35  79 NE13      30.03R
$$

VAZ048-241400-
ELSEWHERE

CITY           SKY/WX    TMP DP  RH WIND       PRES   REMARKS
HARRISBURG PA  CLOUDY    30  27  88 CALM      30.07R
BALTIMORE      PTCLDY    30  26  85 CALM      30.09R
ANNAPOLIS      CLEAR     35  31  85 CALM      30.09R
ANDREWS AFB    CLEAR     31  27  83 CALM      30.07R
PHILADELPHIA   CLEAR     34  29  82 W6        30.09R
HENDERSON NC   CLEAR     26  25  94 CALM      30.08S
GREENSBORO     CLEAR     30  28  92 S3        30.05S
ROCKY MOUNT    SUNNY     30  30 100 CALM      30.11R FOG
$$

VAZ100-241400-
MARINE

STATION/POSITION TIME  TEMP    WIND        PRES    WAVE   SWELL
                       AIR SEA DIR/SP/G            HT/PER HT/PER
                 (UTC) (F)     (DEG/KT/KT) (MB)    (FT/S) (FT/S)
BRANDYWINE LGT   1242   42     240/  7/  7 1019.0S
CAPE MAY NJ      1242   36 49  100/  1/  2 1018.2S
LEWES DE         1248   35 50  220/  4/  6 1018.6F
15NM E FENWICK I 1150   45 57  310/  8/ 12 1019.1    3/10   3/10
OCEAN-CITY-INLET 1248   38 47     CALM     1019.3S
WACHAPREAGUE VA  1248   37 45   CALM  /  1 1019.2R
THOMAS POINT MD  1300   39 51  260/  7/  7   N/A
GOOSES REEF MD   1250   43     240/  8/ 10 1021.6R
COVE POINT MD    1248   41     270/  6/  8 1019.4S
SOLOMONS ISLAND  1248   43 53  250/  3/  4 1018.5R
BISHOPS HEAD MD  1248   45 45   CALM  /  1 1018.9F
PINEY POINT MD   1236          300/  7/  8   N/A
POTOMAC MD       1250   43     270/  6/  6 1018.2F
CAMBRIDGE MD     1248   35 48              1019.6R
LEWISETTA VA     1248   36 48  270/  4/  5 1018.9F
RAPPAHANNOCK LGT 1236           90/  4/  5 1019.5S
STINGRAY PT      1250   43     350/  6/  6 1019.1S
YORK RVR RNG VA  1248   43     340/  5/  6 1019.7R
YORKTOWN VA      1236   38 52  280/  2/  3 1018.8R
JAMESTOWN VA     1250          340/  2/  4   N/A
DOMINION TERM VA 1236   41      70/  1/  3 1019.3R
KIPTOPEKE VA     1236      51   50/  4/  5   N/A
CAPE HENRY VA    1236   45      10/  9/ 11   N/A
WILLOUBY STN VA  1236   42     350/  6/  7 1018.9R
S CRANEY ISL VA  1236   41     220/  2/  2 1019.0R
CAPE HENRY BUOY  1230      59                N/A     3/ 9   2/11
1ST LANDING BUOY 1250   45      70/  8/ 10 1019.3R
CAPE CHARLES BUO 1251      57                N/A     3/ 9   2/11
64NM E OF VA BCH 1250   50 59   30/ 10/ 14 1018.7R   5/ 9   5/ 9
DUCK PIER NC     1236   49 57   40/ 13/ 15 1017.8R
44100 DUCK FRF   1245      60                N/A     4/11   2/11
44056 DUCK FRF   1300      59                N/A     5/10   2/11
OREGON INLET NC  1236   50 56   20/ 12/ 15 1017.6R
HATTERAS NC      1236   51 57   30/ 12/ 18 1016.5S
DIAMOND SHLS NC  1300   59      20/ 21/ 25 1016.3
CAPE LOOKOUT NC  1200           20/ 17/ 19 1016.4S
$$




USA.gov is the U.S. government's official web portal to all federal, state and local government web resources and services.